Content
SEND FEEDBACK

Daily
Averages
Monthly
Summary
United States of America

OROVILLE, CALIFORNIA


Home > North America > United States > California
Elevation: 199 feet     Latitude: 39 30N     Longitude: 121 37W

WEATHER
 
SELECT A DAY
Number of Records: 155,697;   Date Range: 6/17/98 - 11/22/14
 
SHARE

PRINT THIS DATA

[ ← Previous Day ]
WEATHER ALMANAC - APRIL 10, 2014
[ Next Day → ]
[ °C ]   °F
Weather ElementAverageHighLow
Temperature71 °F82.9 °F (2:53 pm)54 °F (5:53 am)
Dewpoint47.2 °F52 °F (9:53 am)39 °F (5:53 pm)
Humidity45.7 %80 % (4:53 am)21 % (5:53 pm)
Barometer29.96 in30.03 in (8:53 am)29.88 in (5:53 pm)
Wind Speed4 mph8.1 mph (1:53 am)
Weather ElementAverage
Visibility10 mi
Wind DirectionESE (105.9 °)

Weather ElementTotal
Precipitation---
Cooling Degree Days3.5 (Base 65)
Growing Degree Days18.5 (Base 50)
Averaged from 22 records on April 10, 2014
WEATHER CONDITIONS BREAKOUT
WIND DIRECTION BREAKOUT
WEATHER BY HOUR - APRIL 10, 2014
[ °C ]   °F
Local TimeTemperatureDewpointHumidityBarometerVisibilityWind DirectionWind SpeedGust SpeedPrecipitationEventsConditions
1:53 AM64.0 °F46.9 °F54 %30.01 in10.0 miEast (90°)8.1 mphClear
2:53 AM64.9 °F46.0 °F50 %30.00 in10.0 miENE (60°)6.9 mphClear
3:53 AM63.0 °F46.0 °F54 %29.99 in10.0 miENE (70°)8.1 mphClear
4:53 AM55.9 °F50.0 °F80 %30.00 in10.0 miWest (270°)3.5 mphClear
5:53 AM54.0 °F48.0 °F80 %30.01 in10.0 miNW (310°)3.5 mphClear
7:53 AM60.1 °F50.0 °F69 %30.02 in10.0 miCalmClear
8:53 AM66.0 °F50.0 °F56 %30.03 in10.0 miCalmClear
9:53 AM68.0 °F52.0 °F56 %30.03 in10.0 miVariable3.5 mphClear
10:53 AM73.0 °F48.9 °F42 %30.03 in10.0 miWNW (300°)6.9 mphClear
11:53 AM75.9 °F48.9 °F38 %30.02 in10.0 miWest (270°)6.9 mphClear
12:53 PM78.1 °F48.9 °F36 %30.00 in10.0 miWest (270°)5.8 mphClear
1:53 PM81.0 °F48.0 °F31 %29.98 in10.0 miVariable3.5 mphClear
2:53 PM82.9 °F46.0 °F27 %29.95 in10.0 miCalmClear
3:53 PM82.9 °F41.0 °F23 %29.92 in10.0 miWest (280°)4.6 mphClear
4:53 PM82.9 °F42.1 °F24 %29.89 in10.0 miCalmClear
5:53 PM82.9 °F39.0 °F21 %29.88 in10.0 miCalmClear
6:53 PM81.0 °F50.0 °F34 %29.88 in10.0 miESE (110°)3.5 mphClear
7:53 PM73.9 °F51.1 °F45 %29.88 in10.0 miCalmClear
8:53 PM70.0 °F50.0 °F49 %29.90 in10.0 miENE (70°)4.6 mphClear
9:53 PM68.0 °F46.0 °F45 %29.90 in10.0 miENE (70°)4.6 mphClear
10:53 PM66.9 °F44.1 °F44 %29.90 in10.0 miENE (70°)6.9 mphClear
11:53 PM66.0 °F45.0 °F47 %29.92 in10.0 miEast (90°)6.9 mphClear
Hourly data recorded from KOVE, located miles away from Oroville, California







STORIES FROM OUR PARTNERS